| time (UTC) | temp C | wind direction | speed KPH | gust KPH | rain 1hr cm | rain 24hr cm | rain mn cm | humidity % | barometer mb |
| 20260504201525 | 24 | 221 | 0.0 | 11.3 | 0.00 | 0.00 | 0.00 | 37 | 1011.3 |
| 20260504200030 | 23 | 149 | 1.6 | 6.4 | 0.00 | 0.00 | 0.00 | 36 | 1011.5 |
| 20260504194512 | 23 | 309 | 1.6 | 8.0 | 0.00 | 0.00 | 0.00 | 37 | 1011.6 |
| 20260504193023 | 23 | 84 | 0.0 | 9.7 | 0.00 | 0.00 | 0.00 | 36 | 1011.8 |
| 20260504191521 | 23 | 317 | 0.0 | 6.4 | 0.00 | 0.00 | 0.00 | 38 | 1011.9 |
| 20260504190033 | 25 | 197 | 1.6 | 9.7 | 0.00 | 0.00 | 0.00 | 33 | 1012.1 |
| 20260504184526 | 25 | 107 | 1.6 | 6.4 | 0.00 | 0.00 | 0.00 | 33 | 1012.3 |
| 20260504183018 | 25 | 202 | 1.6 | 9.7 | 0.00 | 0.00 | 0.00 | 33 | 1012.4 |
| 20260504181504 | 25 | 101 | 1.6 | 11.3 | 0.00 | 0.00 | 0.00 | 32 | 1012.9 |
| 20260504180004 | 25 | 171 | 1.6 | 9.7 | 0.00 | 0.00 | 0.00 | 31 | 1013.1 |
| 20260504174509 | 25 | 294 | 1.6 | 6.4 | 0.00 | 0.00 | 0.00 | 31 | 1013.2 |
| 20260504173013 | 25 | 328 | 0.0 | 9.7 | 0.00 | 0.00 | 0.00 | 34 | 1013.3 |
| 20260504171534 | 24 | 206 | 0.0 | 8.0 | 0.00 | 0.00 | 0.00 | 33 | 1013.5 |
| 20260504081527 | 7 | 256 | 0.0 | 0.0 | 0.00 | 0.00 | 0.00 | 81 | 1016.3 |
| 20260504050016 | 7 | 256 | 0.0 | 0.0 | 0.00 | 0.00 | 0.00 | 82 | 1016.3 |
| 20260504044526 | 7 | 256 | 0.0 | 0.0 | 0.00 | 0.00 | 0.00 | 82 | 1016.1 |
| 20260504043026 | 7 | 256 | 0.0 | 0.0 | 0.00 | 0.00 | 0.00 | 83 | 1016.1 |
| 20260504041530 | 7 | 256 | 0.0 | 0.0 | 0.00 | 0.00 | 0.00 | 82 | 1016.0 |
| 20260504040017 | 6 | 256 | 0.0 | 0.0 | 0.00 | 0.00 | 0.00 | 82 | 1016.1 |
| 20260504034520 | 6 | 256 | 0.0 | 0.0 | 0.00 | 0.00 | 0.00 | 81 | 1016.2 |
| 20260504033004 | 6 | 256 | 0.0 | 0.0 | 0.00 | 0.00 | 0.00 | 80 | 1016.0 |
| 20260504031504 | 7 | 256 | 0.0 | 0.0 | 0.00 | 0.00 | 0.00 | 77 | 1015.9 |
| 20260504030008 | 7 | 256 | 0.0 | 0.0 | 0.00 | 0.00 | 0.00 | 76 | 1016.0 |
| 20260504024516 | 7 | 256 | 0.0 | 0.0 | 0.00 | 0.00 | 0.00 | 76 | 1015.8 |
| 20260504023004 | 7 | 256 | 0.0 | 0.0 | 0.00 | 0.00 | 0.00 | 74 | 1015.9 |
| 20260504021504 | 8 | 256 | 0.0 | 0.0 | 0.00 | 0.00 | 0.00 | 71 | 1015.9 |
| 20260504020012 | 8 | 256 | 0.0 | 0.0 | 0.00 | 0.00 | 0.00 | 69 | 1015.8 |
| 20260504014515 | 8 | 256 | 0.0 | 0.0 | 0.00 | 0.00 | 0.00 | 68 | 1015.8 |
| 20260504013016 | 9 | 256 | 0.0 | 0.0 | 0.00 | 0.00 | 0.00 | 65 | 1015.9 |
| 20260504011504 | 10 | 256 | 0.0 | 0.0 | 0.00 | 0.00 | 0.00 | 64 | 1015.6 |
| 20260504010005 | 10 | 256 | 0.0 | 0.0 | 0.00 | 0.00 | 0.00 | 62 | 1015.6 |
| 20260504004510 | 11 | 256 | 0.0 | 0.0 | 0.00 | 0.00 | 0.00 | 60 | 1015.5 |
| 20260504003012 | 11 | 256 | 0.0 | 0.0 | 0.00 | 0.00 | 0.00 | 59 | 1015.4 |
| 20260504001518 | 12 | 256 | 0.0 | 0.0 | 0.00 | 0.00 | 0.00 | 55 | 1015.4 |
| 20260504000004 | 13 | 256 | 0.0 | 0.0 | 0.00 | 0.00 | 0.00 | 52 | 1015.3 |
| 20260503234508 | 14 | 256 | 0.0 | 0.0 | 0.00 | 0.00 | 0.00 | 50 | 1015.1 |
| 20260503233033 | 15 | 256 | 0.0 | 0.0 | 0.00 | 0.00 | 0.00 | 47 | 1015.0 |
| 20260503231516 | 16 | 256 | 0.0 | 0.0 | 0.00 | 0.00 | 0.00 | 42 | 1014.9 |
| 20260503230020 | 16 | 256 | 0.0 | 0.0 | 0.00 | 0.00 | 0.00 | 39 | 1014.9 |
| 20260503224507 | 17 | 257 | 0.0 | 0.0 | 0.00 | 0.00 | 0.00 | 31 | 1014.9 |
| 20260503223008 | 17 | 332 | 0.0 | 4.8 | 0.00 | 0.00 | 0.00 | 31 | 1015.0 |
| 20260503221513 | 17 | 51 | 0.0 | 3.2 | 0.00 | 0.00 | 0.00 | 31 | 1015.1 |
| 20260503220037 | 17 | 270 | 0.0 | 4.8 | 0.00 | 0.00 | 0.00 | 31 | 1015.1 |
| 20260503214520 | 17 | 300 | 0.0 | 4.8 | 0.00 | 0.00 | 0.00 | 31 | 1015.1 |
| 20260503213009 | 17 | 272 | 1.6 | 8.0 | 0.00 | 0.00 | 0.00 | 31 | 1015.2 |
| 20260503211512 | 17 | 16 | 0.0 | 4.8 | 0.00 | 0.00 | 0.00 | 32 | 1015.2 |
| 20260503210014 | 17 | 352 | 1.6 | 8.0 | 0.00 | 0.00 | 0.00 | 30 | 1015.3 |
| 20260503204521 | 17 | 236 | 1.6 | 8.0 | 0.00 | 0.00 | 0.00 | 32 | 1015.3 |
| 20260503203030 | 17 | 200 | 1.6 | 6.4 | 0.00 | 0.00 | 0.00 | 30 | 1015.6 |